#timestamp,LO_Frequency,Hit 
1501840815.8,286046971.5,N
1501840835.6,286046971.1,N
1501840855.4,286046971.1,N
1501840875.3,286046971.5,N
1501840895.1,286046972.0,N
1501840915.8,286046972.0,N
1501840935.7,286046971.5,N
1501840955.5,286046969.7,N
1501840975.3,286046969.8,N
1501840995.2,286046974.0,N
1501841015.9,286046969.7,N
1501841035.7,286046971.7,N
1501841055.5,286046971.0,N
1501841075.4,286046971.0,N
1501841095.2,286046973.6,N
1501841115.0,286046971.0,N
1501841115.9,286046971.0,N
1501841135.8,286046971.2,N
1501841155.6,286046971.8,N
1501841175.4,286046971.6,N
1501841195.3,286046969.7,N
1501841215.1,286046971.1,N
1501841235.8,286046972.3,N
1501841255.7,286046971.9,N
1501841275.5,286046969.7,N
1501841295.3,286046972.4,N
1501841315.2,286046970.4,N
1501841335.9,286046970.4,N
1501841355.7,286046969.3,N
1501841375.6,286046972.3,N
1501841395.4,286046972.0,N
1501841415.2,286046969.8,N
1501841435.0,286046969.5,N
1501841435.9,286046969.5,N
1501841455.8,286046969.8,N
1501841475.6,286046969.6,N
1501841495.4,286046970.6,N
1501841515.3,286046970.0,N
1501841535.1,286046970.8,N
1501841555.8,286046970.4,N
1501841575.7,286046967.7,N
1501841595.5,286046970.4,N
1501841615.3,286046970.4,N
1501841635.2,286046968.1,N
1501841655.9,286046967.8,N
1501841675.7,286046970.6,N
1501841695.5,286046970.3,N
1501841715.4,286046967.9,N
1501841735.2,286046967.9,N
1501841755.0,286046970.0,N
1501841755.9,286046970.0,N
1501841775.8,286046967.8,N
1501841795.6,286046968.5,N
1501841815.4,286046970.8,N
1501841835.3,286046967.9,N
1501841855.1,286046967.7,N
1501841856.0,286046967.7,N
1501841875.8,286046969.5,N
1501841895.7,286046972.3,N
1501841915.5,286046970.2,N
1501841935.3,286046972.3,N
1501841955.1,286046969.3,N
1501841975.9,286046970.6,N
1501841995.7,286046970.2,N
1501842015.5,286046970.8,N
1501842035.4,286046967.8,N
1501842055.2,286046968.9,N
1501842075.0,286046970.8,N
1501842075.9,286046970.8,N
1501842095.8,286046968.7,N
1501842115.6,286046966.7,N
1501842135.4,286046968.4,N
1501842155.3,286046968.9,N
1501842175.1,286046967.0,N
1501842176.0,286046967.0,N
1501842195.8,286046968.0,N
1501842215.7,286046970.2,N
1501842235.5,286046970.0,N
1501842255.3,286046970.5,N
1501842275.1,286046969.5,N
1501842295.9,286046967.7,N
1501842315.7,286046969.9,N
1501842335.5,286046969.5,N
1501842355.4,286046969.9,N
1501842375.2,286046971.8,N
1501842395.0,286046969.9,N
1501842395.9,286046969.9,N
1501842415.8,286046972.3,N
1501842435.6,286046972.1,N
1501842455.4,286046972.4,N
1501842475.3,286046971.5,N
1501842495.1,286046971.1,N
1501842496.0,286046971.1,N
1501842515.8,286046972.0,N
1501842535.7,286046971.5,N
1501842555.5,286046969.8,N
1501842575.3,286046972.3,N
1501842595.2,286046969.3,N
1501842615.9,286046972.0,N
1501842635.7,286046969.6,N
1501842655.5,286046969.7,N
1501842675.4,286046970.1,N
1501842695.2,286046968.4,N
1501842715.0,286046968.3,N
1501842715.9,286046968.3,N
1501842735.8,286046970.0,N
1501842755.6,286046967.9,N
1501842775.4,286046970.0,N
1501842795.3,286046967.8,N
1501842815.1,286046970.6,N
1501842835.8,286046972.4,N
1501842855.7,286046969.5,N
1501842875.5,286046972.3,N
1501842895.3,286046971.8,N
1501842915.2,286046969.8,N
1501842935.9,286046972.0,N
1501842955.7,286046972.1,N
1501842975.5,286046971.7,N
1501842995.4,286046969.7,N
1501843015.2,286046971.0,N
1501843035.0,286046971.3,N
1501843035.9,286046971.3,N
1501843055.8,286046971.2,N
1501843075.6,286046972.3,N
1501843095.4,286046970.0,N
1501843115.3,286046972.3,N
1501843135.1,286046969.5,N
1501843136.0,286046969.5,Y
1501843155.8,286046991.6,N
1501843175.7,286046990.7,N
1501843195.5,286046990.2,N
1501843215.3,286046992.9,N
1501843235.2,286046992.9,N
1501843255.9,286046992.6,N
1501843275.7,286046992.4,N
1501843295.6,286046992.7,N
1501843315.4,286046991.8,N
1501843335.2,286046992.2,N
1501843355.0,286046991.9,N
1501843356.0,286046991.9,N
1501843375.8,286046992.8,N
1501843395.6,286046990.2,N
1501843415.4,286046992.7,N
1501843435.3,286046990.1,N
1501843455.1,286046990.1,N
1501843475.8,286046993.0,N
1501843495.7,286046992.4,N
1501843515.5,286046990.1,N
1501843535.3,286046992.4,N
1501843555.2,286046990.6,N
1501843575.9,286046990.8,N
1501843595.7,286046990.2,N
1501843615.6,286046993.0,N
1501843635.4,286046991.4,N
1501843655.2,286046990.7,N
1501843675.0,286046990.1,N
1501843675.9,286046990.1,N
1501843695.8,286046990.3,N
1501843715.6,286046990.7,N
1501843735.4,286046990.7,N
1501843755.3,286046990.9,N
1501843775.1,286046991.0,N
1501843795.8,286046990.7,N
1501843815.7,286046990.2,N
1501843835.5,286046990.9,N
1501843855.3,286046993.1,N
1501843875.2,286046991.1,N
1501843895.9,286046990.2,N
1501843915.7,286046991.5,N
1501843935.5,286046991.0,N
1501843955.4,286046991.5,N
1501843975.2,286046988.5,N
1501843995.0,286046988.8,N
1501843995.9,286046988.8,N
1501844015.8,286046989.8,N
1501844035.6,286046990.0,N
1501844055.4,286046989.2,N
1501844075.3,286046988.8,N
1501844095.1,286046988.2,N
1501844096.0,286046988.2,N
1501844115.8,286046989.7,N
1501844135.7,286046988.1,N
1501844155.5,286046989.4,N
1501844175.3,286046989.0,N
1501844195.2,286046989.5,N
1501844215.9,286046989.7,N
1501844235.7,286046989.0,N
1501844255.5,286046987.0,N
1501844275.4,286046989.1,N
1501844295.2,286046988.9,N
1501844315.0,286046989.7,N
1501844315.9,286046989.7,N
1501844335.8,286046990.7,N
1501844355.6,286046991.5,N
1501844375.4,286046990.8,N
1501844395.3,286046989.2,N
